| time (UTC) | temp F | wind direction | speed MPH | gust MPH | rain 1hr in | rain 24hr in | rain mn in | humidity % | barometer mb |
| 20260904054348 | 64 | 235 | 9.0 | 10.0 | 0.00 | 0.00 | 0.00 | 81 | 1013.0 |
| 20260904053604 | 64 | 220 | 6.0 | 10.0 | 0.00 | 0.00 | 0.00 | 82 | 1013.0 |
| 20260904053106 | 64 | 201 | 6.0 | 11.0 | 0.00 | 0.00 | 0.00 | 82 | 1013.0 |
| 20260904052605 | 64 | 207 | 7.0 | 11.0 | 0.00 | 0.00 | 0.00 | 82 | 1013.1 |
| 20260904052345 | 64 | 231 | 5.0 | 7.0 | 0.00 | 0.00 | 0.00 | 82 | 1013.2 |
| 20260904051605 | 64 | 234 | 5.0 | 7.0 | 0.00 | 0.00 | 0.00 | 82 | 1013.2 |
| 20260904051104 | 64 | 218 | 5.0 | 7.0 | 0.00 | 0.00 | 0.00 | 82 | 1013.3 |
| 20260904050604 | 64 | 217 | 5.0 | 10.0 | 0.00 | 0.00 | 0.00 | 82 | 1013.4 |
| 20260904050111 | 64 | 248 | 5.0 | 10.0 | 0.00 | 0.00 | 0.00 | 82 | 1013.5 |
| 20260904045847 | 64 | 228 | 6.0 | 9.0 | 0.00 | 0.00 | 0.00 | 82 | 1013.4 |
| 20260904045345 | 64 | 234 | 6.0 | 9.0 | 0.00 | 0.00 | 0.00 | 82 | 1013.5 |
| 20260904044607 | 64 | 252 | 4.0 | 7.0 | 0.00 | 0.00 | 0.00 | 82 | 1013.5 |
| 20260904044105 | 64 | 241 | 6.0 | 10.0 | 0.00 | 0.00 | 0.00 | 82 | 1013.6 |
| 20260904043604 | 64 | 251 | 6.0 | 10.0 | 0.00 | 0.00 | 0.00 | 82 | 1013.6 |
| 20260904043105 | 64 | 260 | 4.0 | 6.0 | 0.00 | 0.00 | 0.00 | 82 | 1013.5 |
| 20260904042604 | 64 | 244 | 4.0 | 6.0 | 0.00 | 0.00 | 0.00 | 82 | 1013.6 |
| 20260904042103 | 64 | 234 | 3.0 | 6.0 | 0.00 | 0.00 | 0.00 | 82 | 1013.5 |
| 20260904041606 | 64 | 235 | 3.0 | 7.0 | 0.00 | 0.00 | 0.00 | 81 | 1013.5 |
| 20260904041104 | 64 | 222 | 6.0 | 7.0 | 0.00 | 0.00 | 0.00 | 81 | 1013.4 |
| 20260904040603 | 64 | 224 | 4.0 | 7.0 | 0.00 | 0.00 | 0.00 | 81 | 1013.4 |
| 20260904040108 | 64 | 246 | 3.0 | 5.0 | 0.00 | 0.00 | 0.00 | 81 | 1013.6 |
| 20260904035555 | 64 | 241 | 4.0 | 7.0 | 0.00 | 0.00 | 0.00 | 81 | 1013.6 |
| 20260904035054 | 64 | 234 | 5.0 | 7.0 | 0.00 | 0.00 | 0.00 | 81 | 1013.8 |
| 20260904034555 | 64 | 245 | 5.0 | 9.0 | 0.00 | 0.00 | 0.00 | 81 | 1013.8 |
| 20260904034053 | 64 | 231 | 5.0 | 9.0 | 0.00 | 0.00 | 0.00 | 82 | 1013.8 |
| 20260904033553 | 64 | 242 | 4.0 | 7.0 | 0.00 | 0.00 | 0.00 | 82 | 1013.8 |
| 20260904033054 | 64 | 204 | 4.0 | 9.0 | 0.00 | 0.00 | 0.00 | 82 | 1014.0 |
| 20260904032553 | 64 | 241 | 6.0 | 9.0 | 0.00 | 0.00 | 0.00 | 82 | 1013.8 |
| 20260904032052 | 63 | 237 | 4.0 | 9.0 | 0.00 | 0.00 | 0.00 | 81 | 1013.9 |
| 20260904031554 | 63 | 242 | 5.0 | 7.0 | 0.00 | 0.00 | 0.00 | 81 | 1013.7 |
| 20260904031052 | 63 | 235 | 4.0 | 7.0 | 0.00 | 0.00 | 0.00 | 81 | 1013.7 |
| 20260904030552 | 63 | 239 | 5.0 | 9.0 | 0.00 | 0.00 | 0.00 | 81 | 1013.6 |
| 20260904030053 | 63 | 256 | 7.0 | 9.0 | 0.00 | 0.00 | 0.00 | 81 | 1013.7 |
| 20260904025552 | 63 | 256 | 4.0 | 7.0 | 0.00 | 0.00 | 0.00 | 81 | 1013.9 |
| 20260904025051 | 63 | 239 | 4.0 | 9.0 | 0.00 | 0.00 | 0.00 | 81 | 1014.1 |
| 20260904024554 | 63 | 234 | 6.0 | 11.0 | 0.00 | 0.00 | 0.00 | 81 | 1014.2 |
| 20260904024327 | 63 | 217 | 8.0 | 11.0 | 0.00 | 0.00 | 0.00 | 81 | 1014.2 |
| 20260904023552 | 63 | 263 | 6.0 | 13.0 | 0.00 | 0.00 | 0.00 | 81 | 1014.1 |
| 20260904023342 | 63 | 265 | 5.0 | 13.0 | 0.00 | 0.00 | 0.00 | 82 | 1014.1 |
| 20260904022551 | 63 | 265 | 6.0 | 11.0 | 0.00 | 0.00 | 0.00 | 82 | 1014.1 |
| 20260904022052 | 63 | 244 | 5.0 | 13.0 | 0.00 | 0.00 | 0.00 | 81 | 1014.0 |
| 20260904021837 | 63 | 256 | 8.0 | 13.0 | 0.00 | 0.00 | 0.00 | 81 | 1014.0 |
| 20260904021139 | 63 | 210 | 7.0 | 13.0 | 0.00 | 0.00 | 0.00 | 82 | 1014.0 |
| 20260904021125 | 63 | 255 | 7.0 | 13.0 | 0.00 | 0.00 | 0.00 | 82 | 1014.1 |
| 20260904020606 | 63 | 221 | 8.0 | 12.0 | 0.00 | 0.00 | 0.00 | 82 | 1014.0 |
| 20260904015533 | 63 | 215 | 9.0 | 13.0 | 0.00 | 0.00 | 0.00 | 82 | 1014.1 |
| 20260904015031 | 63 | 241 | 7.0 | 11.0 | 0.00 | 0.00 | 0.00 | 82 | 1014.1 |
| 20260904014813 | 63 | 224 | 7.0 | 11.0 | 0.00 | 0.00 | 0.00 | 81 | 1013.9 |
| 20260904014317 | 63 | 235 | 6.0 | 11.0 | 0.00 | 0.00 | 0.00 | 81 | 1014.0 |
| 20260904013533 | 63 | 234 | 7.0 | 14.0 | 0.00 | 0.00 | 0.00 | 81 | 1014.0 |
| 20260904013031 | 63 | 242 | 6.0 | 14.0 | 0.00 | 0.00 | 0.00 | 81 | 1014.0 |
| 20260904012533 | 63 | 228 | 7.0 | 10.0 | 0.00 | 0.00 | 0.00 | 81 | 1013.9 |
| 20260904012032 | 63 | 237 | 5.0 | 9.0 | 0.00 | 0.00 | 0.00 | 81 | 1014.1 |
| 20260904011534 | 63 | 214 | 6.0 | 9.0 | 0.00 | 0.00 | 0.00 | 81 | 1014.1 |
| 20260904011033 | 63 | 249 | 5.0 | 11.0 | 0.00 | 0.00 | 0.00 | 81 | 1014.2 |
| 20260904010532 | 63 | 241 | 7.0 | 11.0 | 0.00 | 0.00 | 0.00 | 81 | 1014.3 |
| 20260904010317 | 63 | 228 | 8.0 | 9.0 | 0.00 | 0.00 | 0.00 | 81 | 1014.3 |
| 20260904005535 | 63 | 249 | 4.0 | 9.0 | 0.00 | 0.00 | 0.00 | 80 | 1014.4 |
| 20260904005034 | 63 | 245 | 2.0 | 9.0 | 0.00 | 0.00 | 0.00 | 80 | 1014.3 |
| 20260904004535 | 63 | 248 | 5.0 | 9.0 | 0.00 | 0.00 | 0.00 | 80 | 1014.4 |
| 20260904004107 | 63 | 251 | 6.0 | 9.0 | 0.00 | 0.00 | 0.00 | 80 | 1014.4 |
| 20260904004052 | 63 | 258 | 4.0 | 9.0 | 0.00 | 0.00 | 0.00 | 80 | 1014.4 |
| 20260904003034 | 63 | 218 | 4.0 | 7.0 | 0.00 | 0.00 | 0.00 | 79 | 1014.3 |
| 20260904002536 | 63 | 262 | 4.0 | 7.0 | 0.00 | 0.00 | 0.00 | 79 | 1014.4 |
| 20260904002034 | 63 | 251 | 5.0 | 6.0 | 0.00 | 0.00 | 0.00 | 79 | 1014.4 |
| 20260904001523 | 63 | 222 | 4.0 | 11.0 | 0.00 | 0.00 | 0.00 | 79 | 1014.5 |
| 20260904001008 | 64 | 256 | 8.0 | 11.0 | 0.00 | 0.00 | 0.00 | 79 | 1014.4 |
| 20260904000520 | 64 | 245 | 6.0 | 10.0 | 0.00 | 0.00 | 0.00 | 79 | 1014.5 |
| 20260904000005 | 64 | 266 | 5.0 | 10.0 | 0.00 | 0.00 | 0.00 | 79 | 1014.4 |
| 20260903235507 | 64 | 256 | 5.0 | 9.0 | 0.00 | 0.00 | 0.00 | 79 | 1014.4 |
| 20260903235005 | 64 | 248 | 5.0 | 11.0 | 0.00 | 0.00 | 0.00 | 78 | 1014.6 |
| 20260903234505 | 64 | 256 | 4.0 | 11.0 | 0.00 | 0.00 | 0.00 | 78 | 1014.6 |
| 20260903234002 | 64 | 280 | 6.0 | 12.0 | 0.00 | 0.00 | 0.00 | 78 | 1014.6 |
| 20260903233504 | 64 | 252 | 5.0 | 12.0 | 0.00 | 0.00 | 0.00 | 78 | 1014.7 |
| 20260903233004 | 64 | 275 | 7.0 | 12.0 | 0.00 | 0.00 | 0.00 | 78 | 1014.7 |
| 20260903232505 | 64 | 242 | 6.0 | 12.0 | 0.00 | 0.00 | 0.00 | 78 | 1014.7 |
| 20260903232004 | 64 | 269 | 5.0 | 14.0 | 0.00 | 0.00 | 0.00 | 78 | 1014.8 |
| 20260903231752 | 64 | 258 | 7.0 | 14.0 | 0.00 | 0.00 | 0.00 | 78 | 1014.8 |
| 20260903230958 | 64 | 241 | 5.0 | 11.0 | 0.00 | 0.00 | 0.00 | 78 | 1014.9 |
| 20260903230509 | 64 | 249 | 5.0 | 13.0 | 0.00 | 0.00 | 0.00 | 78 | 1014.8 |
| 20260903225954 | 64 | 273 | 6.0 | 15.0 | 0.00 | 0.00 | 0.00 | 78 | 1014.7 |
| 20260903225451 | 64 | 259 | 8.0 | 15.0 | 0.00 | 0.00 | 0.00 | 78 | 1014.6 |
| 20260903224948 | 64 | 251 | 5.0 | 12.0 | 0.00 | 0.00 | 0.00 | 78 | 1014.6 |
| 20260903224451 | 64 | 251 | 8.0 | 12.0 | 0.00 | 0.00 | 0.00 | 78 | 1014.7 |
| 20260903223946 | 64 | 220 | 7.0 | 12.0 | 0.00 | 0.00 | 0.00 | 78 | 1014.6 |
| 20260903223451 | 64 | 256 | 4.0 | 12.0 | 0.00 | 0.00 | 0.00 | 78 | 1014.7 |
| 20260903222948 | 64 | 251 | 9.0 | 12.0 | 0.00 | 0.00 | 0.00 | 78 | 1014.6 |
| 20260903222454 | 64 | 248 | 5.0 | 10.0 | 0.00 | 0.00 | 0.00 | 78 | 1014.7 |
| 20260903221949 | 64 | 265 | 7.0 | 14.0 | 0.00 | 0.00 | 0.00 | 78 | 1014.7 |
| 20260903221444 | 0 | 268 | 9.0 | 5.0 | 0.00 | 0.00 | 0.00 | 1014.7 | |
| 20260903221105 | 0 | 244 | 6.0 | 5.0 | 0.00 | 0.00 | 0.00 | 1014.7 | |
| 20260903220606 | 64 | 244 | 6.0 | 10.0 | 0.00 | 0.00 | 0.00 | 79 | 1014.7 |
| 20260903220106 | 64 | 234 | 6.0 | 13.0 | 0.00 | 0.00 | 0.00 | 79 | 1014.7 |
| 20260903215606 | 64 | 203 | 8.0 | 13.0 | 0.00 | 0.00 | 0.00 | 79 | 1014.8 |
| 20260903215344 | 64 | 239 | 7.0 | 14.0 | 0.00 | 0.00 | 0.00 | 79 | 1014.8 |
| 20260903214604 | 64 | 265 | 8.0 | 14.0 | 0.00 | 0.00 | 0.00 | 78 | 1014.9 |
| 20260903214104 | 64 | 251 | 6.0 | 15.0 | 0.00 | 0.00 | 0.00 | 78 | 1014.9 |
| 20260903213603 | 64 | 269 | 6.0 | 15.0 | 0.00 | 0.00 | 0.00 | 78 | 1014.8 |
| 20260903213344 | 64 | 239 | 6.0 | 9.0 | 0.00 | 0.00 | 0.00 | 78 | 1014.9 |
| 20260903212657 | 64 | 238 | 9.0 | 13.0 | 0.00 | 0.00 | 0.00 | 78 | 1014.9 |
| 20260903212653 | 64 | 231 | 10.0 | 13.0 | 0.00 | 0.00 | 0.00 | 78 | 1014.9 |
| 20260903212634 | 64 | 244 | 3.0 | 11.0 | 0.00 | 0.00 | 0.00 | 78 | 1014.9 |
| 20260903211101 | 64 | 231 | 6.0 | 13.0 | 0.00 | 0.00 | 0.00 | 78 | 1014.8 |
| 20260903210602 | 64 | 266 | 5.0 | 14.0 | 0.00 | 0.00 | 0.00 | 78 | 1014.8 |
| 20260903205602 | 64 | 238 | 9.0 | 14.0 | 0.00 | 0.00 | 0.00 | 78 | 1014.8 |
| 20260903205102 | 64 | 260 | 6.0 | 12.0 | 0.00 | 0.00 | 0.00 | 78 | 1014.9 |
| 20260903204602 | 64 | 251 | 7.0 | 12.0 | 0.00 | 0.00 | 0.00 | 78 | 1015.0 |
| 20260903204147 | 64 | 217 | 6.0 | 11.0 | 0.00 | 0.00 | 0.00 | 78 | 1015.0 |
| 20260903204141 | 64 | 228 | 6.0 | 14.0 | 0.00 | 0.00 | 0.00 | 78 | 1015.0 |
| 20260903204127 | 64 | 237 | 5.0 | 10.0 | 0.00 | 0.00 | 0.00 | 78 | 1015.0 |
| 20260903202602 | 64 | 263 | 10.0 | 14.0 | 0.00 | 0.00 | 0.00 | 78 | 1015.0 |
| 20260903202101 | 64 | 273 | 8.0 | 14.0 | 0.00 | 0.00 | 0.00 | 78 | 1014.9 |
| 20260903201601 | 64 | 262 | 8.0 | 14.0 | 0.00 | 0.00 | 0.00 | 78 | 1014.9 |
| 20260903201101 | 64 | 251 | 8.0 | 12.0 | 0.00 | 0.00 | 0.00 | 78 | 1015.0 |
| 20260903200601 | 64 | 263 | 5.0 | 12.0 | 0.00 | 0.00 | 0.00 | 77 | 1014.8 |
| 20260903195601 | 65 | 228 | 8.0 | 15.0 | 0.00 | 0.00 | 0.00 | 77 | 1015.0 |
| 20260903195335 | 65 | 229 | 7.0 | 13.0 | 0.00 | 0.00 | 0.00 | 77 | 1015.0 |
| 20260903194559 | 65 | 259 | 6.0 | 14.0 | 0.00 | 0.00 | 0.00 | 77 | 1014.9 |
| 20260903194102 | 65 | 249 | 8.0 | 15.0 | 0.00 | 0.00 | 0.00 | 77 | 1014.9 |
| 20260903193601 | 65 | 249 | 11.0 | 18.0 | 0.00 | 0.00 | 0.00 | 77 | 1015.0 |
| 20260903193337 | 65 | 229 | 11.0 | 18.0 | 0.00 | 0.00 | 0.00 | 77 | 1015.0 |
| 20260903192600 | 65 | 262 | 12.0 | 19.0 | 0.00 | 0.00 | 0.00 | 77 | 1015.0 |
| 20260903192100 | 65 | 211 | 8.0 | 19.0 | 0.00 | 0.00 | 0.00 | 77 | 1015.0 |
| 20260903191601 | 66 | 213 | 12.0 | 18.0 | 0.00 | 0.00 | 0.00 | 77 | 1015.0 |
| 20260903191100 | 66 | 221 | 10.0 | 18.0 | 0.00 | 0.00 | 0.00 | 76 | 1014.9 |
| 20260903190559 | 66 | 251 | 8.0 | 18.0 | 0.00 | 0.00 | 0.00 | 76 | 1014.9 |
| 20260903190100 | 66 | 246 | 11.0 | 18.0 | 0.00 | 0.00 | 0.00 | 76 | 1014.9 |
| 20260903185559 | 66 | 253 | 9.0 | 16.0 | 0.00 | 0.00 | 0.00 | 76 | 1015.0 |
| 20260903185100 | 66 | 228 | 9.0 | 16.0 | 0.00 | 0.00 | 0.00 | 76 | 1015.0 |
| 20260903184602 | 67 | 252 | 9.0 | 11.0 | 0.00 | 0.00 | 0.00 | 76 | 1014.8 |
| 20260903184102 | 67 | 249 | 6.0 | 13.0 | 0.00 | 0.00 | 0.00 | 76 | 1014.9 |
| 20260903183602 | 67 | 273 | 6.0 | 20.0 | 0.00 | 0.00 | 0.00 | 76 | 1014.9 |
| 20260903183102 | 67 | 220 | 11.0 | 21.0 | 0.00 | 0.00 | 0.00 | 76 | 1014.9 |
| 20260903182602 | 67 | 262 | 12.0 | 21.0 | 0.00 | 0.00 | 0.00 | 76 | 1014.9 |
| 20260903182100 | 67 | 204 | 14.0 | 24.0 | 0.00 | 0.00 | 0.00 | 75 | 1014.8 |
| 20260903181559 | 68 | 252 | 12.0 | 24.0 | 0.00 | 0.00 | 0.00 | 74 | 1014.7 |
| 20260903181059 | 68 | 215 | 12.0 | 20.0 | 0.00 | 0.00 | 0.00 | 74 | 1014.7 |
| 20260903180559 | 68 | 241 | 11.0 | 16.0 | 0.00 | 0.00 | 0.00 | 73 | 1014.7 |
| 20260903180339 | 68 | 225 | 8.0 | 21.0 | 0.00 | 0.00 | 0.00 | 72 | 1014.8 |
| 20260903175558 | 68 | 304 | 14.0 | 22.0 | 0.00 | 0.00 | 0.00 | 72 | 1014.7 |
| 20260903175140 | 69 | 262 | 10.0 | 18.0 | 0.00 | 0.00 | 0.00 | 71 | 1014.4 |
| 20260903175123 | 69 | 279 | 14.0 | 22.0 | 0.00 | 0.00 | 0.00 | 72 | 1014.6 |
| 20260903174058 | 69 | 260 | 7.0 | 17.0 | 0.00 | 0.00 | 0.00 | 70 | 1014.5 |
| 20260903173835 | 69 | 265 | 12.0 | 18.0 | 0.00 | 0.00 | 0.00 | 70 | 1014.5 |
| 20260903173332 | 70 | 283 | 15.0 | 21.0 | 0.00 | 0.00 | 0.00 | 69 | 1014.5 |
| 20260903172600 | 70 | 231 | 13.0 | 21.0 | 0.00 | 0.00 | 0.00 | 68 | 1014.6 |
| 20260903172059 | 70 | 207 | 10.0 | 18.0 | 0.00 | 0.00 | 0.00 | 67 | 1014.5 |
| 20260903171559 | 71 | 218 | 8.0 | 20.0 | 0.00 | 0.00 | 0.00 | 67 | 1014.4 |
| 20260903171059 | 71 | 258 | 13.0 | 20.0 | 0.00 | 0.00 | 0.00 | 67 | 1014.3 |
| 20260903170600 | 71 | 262 | 9.0 | 15.0 | 0.00 | 0.00 | 0.00 | 65 | 1014.4 |
| 20260903170059 | 71 | 269 | 11.0 | 19.0 | 0.00 | 0.00 | 0.00 | 65 | 1014.4 |
| 20260903165841 | 72 | 293 | 10.0 | 19.0 | 0.00 | 0.00 | 0.00 | 65 | 1014.4 |
| 20260903165057 | 72 | 249 | 9.0 | 24.0 | 0.00 | 0.00 | 0.00 | 65 | 1014.3 |
| 20260903164600 | 71 | 258 | 14.0 | 24.0 | 0.00 | 0.00 | 0.00 | 65 | 1014.2 |
| 20260903164059 | 71 | 221 | 13.0 | 22.0 | 0.00 | 0.00 | 0.00 | 66 | 1014.2 |
| 20260903163558 | 71 | 244 | 6.0 | 12.0 | 0.00 | 0.00 | 0.00 | 65 | 1014.3 |
| 20260903163058 | 71 | 225 | 7.0 | 12.0 | 0.00 | 0.00 | 0.00 | 65 | 1014.1 |
| 20260903162558 | 71 | 214 | 4.0 | 9.0 | 0.00 | 0.00 | 0.00 | 65 | 1014.1 |
| 20260903162058 | 71 | 215 | 5.0 | 9.0 | 0.00 | 0.00 | 0.00 | 65 | 1014.1 |
| 20260903161559 | 71 | 215 | 7.0 | 9.0 | 0.00 | 0.00 | 0.00 | 65 | 1014.2 |
| 20260903161058 | 71 | 203 | 5.0 | 10.0 | 0.00 | 0.00 | 0.00 | 64 | 1014.2 |
| 20260903160558 | 71 | 238 | 6.0 | 13.0 | 0.00 | 0.00 | 0.00 | 64 | 1014.3 |
| 20260903160054 | 72 | 210 | 7.0 | 13.0 | 0.00 | 0.00 | 0.00 | 64 | 1014.4 |
| 20260903155836 | 72 | 206 | 4.0 | 10.0 | 0.00 | 0.00 | 0.00 | 63 | 1014.3 |
| 20260903155056 | 72 | 204 | 6.0 | 12.0 | 0.00 | 0.00 | 0.00 | 63 | 1014.4 |
| 20260903154556 | 72 | 217 | 8.0 | 12.0 | 0.00 | 0.00 | 0.00 | 63 | 1014.5 |
| 20260903154056 | 73 | 203 | 8.0 | 11.0 | 0.00 | 0.00 | 0.00 | 62 | 1014.6 |
| 20260903153555 | 73 | 235 | 7.0 | 11.0 | 0.00 | 0.00 | 0.00 | 62 | 1014.6 |
| 20260903153424 | 73 | 222 | 8.0 | 12.0 | 0.00 | 0.00 | 0.00 | 62 | 1014.6 |
| 20260903153416 | 73 | 227 | 7.0 | 12.0 | 0.00 | 0.00 | 0.00 | 63 | 1014.6 |
| 20260903152057 | 73 | 237 | 8.0 | 15.0 | 0.00 | 0.00 | 0.00 | 62 | 1014.6 |
| 20260903151557 | 73 | 228 | 9.0 | 15.0 | 0.00 | 0.00 | 0.00 | 63 | 1014.6 |
| 20260903151055 | 72 | 232 | 7.0 | 12.0 | 0.00 | 0.00 | 0.00 | 63 | 1014.8 |
| 20260903150555 | 72 | 213 | 9.0 | 12.0 | 0.00 | 0.00 | 0.00 | 63 | 1014.9 |
| 20260903150055 | 72 | 225 | 8.0 | 12.0 | 0.00 | 0.00 | 0.00 | 62 | 1015.0 |
| 20260903145554 | 72 | 217 | 6.0 | 11.0 | 0.00 | 0.00 | 0.00 | 62 | 1014.9 |
| 20260903145055 | 72 | 231 | 9.0 | 13.0 | 0.00 | 0.00 | 0.00 | 61 | 1014.9 |
| 20260903144555 | 72 | 221 | 6.0 | 13.0 | 0.00 | 0.00 | 0.00 | 61 | 1015.1 |
| 20260903144055 | 72 | 213 | 11.0 | 13.0 | 0.00 | 0.00 | 0.00 | 61 | 1015.0 |
| 20260903143554 | 73 | 229 | 10.0 | 15.0 | 0.00 | 0.00 | 0.00 | 61 | 1015.1 |
| 20260903143335 | 73 | 237 | 6.0 | 16.0 | 0.00 | 0.00 | 0.00 | 60 | 1015.1 |
| 20260903142554 | 73 | 214 | 9.0 | 16.0 | 0.00 | 0.00 | 0.00 | 60 | 1015.2 |
| 20260903142054 | 73 | 224 | 11.0 | 15.0 | 0.00 | 0.00 | 0.00 | 59 | 1015.1 |
| 20260903141554 | 73 | 215 | 10.0 | 13.0 | 0.00 | 0.00 | 0.00 | 59 | 1015.1 |
| 20260903141333 | 72 | 252 | 7.0 | 12.0 | 0.00 | 0.00 | 0.00 | 60 | 1015.1 |
| 20260903140554 | 72 | 203 | 7.0 | 16.0 | 0.00 | 0.00 | 0.00 | 60 | 1015.2 |
| 20260903140053 | 72 | 204 | 9.0 | 16.0 | 0.00 | 0.00 | 0.00 | 60 | 1015.2 |
| 20260903135554 | 72 | 208 | 9.0 | 14.0 | 0.00 | 0.00 | 0.00 | 62 | 1015.3 |
| 20260903135054 | 72 | 232 | 7.0 | 14.0 | 0.00 | 0.00 | 0.00 | 61 | 1015.4 |
| 20260903134554 | 72 | 213 | 9.0 | 13.0 | 0.00 | 0.00 | 0.00 | 60 | 1015.4 |
| 20260903134058 | 72 | 228 | 8.0 | 16.0 | 0.00 | 0.00 | 0.00 | 61 | 1015.5 |
| 20260903133554 | 72 | 215 | 6.0 | 16.0 | 0.00 | 0.00 | 0.00 | 61 | 1015.6 |
| 20260903133053 | 72 | 255 | 5.0 | 21.0 | 0.00 | 0.00 | 0.00 | 60 | 1015.6 |
| 20260903132553 | 72 | 224 | 15.0 | 21.0 | 0.00 | 0.00 | 0.00 | 61 | 1015.7 |
| 20260903132053 | 72 | 206 | 12.0 | 16.0 | 0.00 | 0.00 | 0.00 | 61 | 1015.7 |
| 20260903131553 | 72 | 220 | 7.0 | 17.0 | 0.00 | 0.00 | 0.00 | 62 | 1015.8 |
| 20260903131452 | 71 | 239 | 9.0 | 20.0 | 0.00 | 0.00 | 0.00 | 61 | 1016.0 |
| 20260903131444 | 72 | 206 | 15.0 | 20.0 | 0.00 | 0.00 | 0.00 | 59 | 1015.9 |
| 20260903131440 | 71 | 259 | 11.0 | 17.0 | 0.00 | 0.00 | 0.00 | 61 | 1015.9 |
| 20260903125554 | 72 | 265 | 10.0 | 16.0 | 0.00 | 0.00 | 0.00 | 61 | 1016.0 |
| 20260903125053 | 72 | 235 | 11.0 | 15.0 | 0.00 | 0.00 | 0.00 | 60 | 1015.9 |
| 20260903124552 | 73 | 237 | 9.0 | 14.0 | 0.00 | 0.00 | 0.00 | 61 | 1015.9 |
| 20260903124053 | 73 | 242 | 12.0 | 14.0 | 0.00 | 0.00 | 0.00 | 62 | 1016.0 |
| 20260903123552 | 73 | 224 | 8.0 | 13.0 | 0.00 | 0.00 | 0.00 | 61 | 1016.1 |
| 20260903123336 | 73 | 234 | 7.0 | 15.0 | 0.00 | 0.00 | 0.00 | 61 | 1016.1 |
| 20260903122550 | 72 | 256 | 10.0 | 16.0 | 0.00 | 0.00 | 0.00 | 61 | 1016.1 |
| 20260903122334 | 72 | 262 | 11.0 | 17.0 | 0.00 | 0.00 | 0.00 | 61 | 1016.2 |
| 20260903121552 | 72 | 263 | 12.0 | 17.0 | 0.00 | 0.00 | 0.00 | 61 | 1016.2 |
| 20260903121052 | 73 | 234 | 10.0 | 16.0 | 0.00 | 0.00 | 0.00 | 61 | 1016.2 |
| 20260903120551 | 72 | 251 | 9.0 | 14.0 | 0.00 | 0.00 | 0.00 | 63 | 1016.3 |
| 20260903120052 | 72 | 238 | 9.0 | 14.0 | 0.00 | 0.00 | 0.00 | 62 | 1016.3 |
| 20260903115551 | 72 | 231 | 9.0 | 13.0 | 0.00 | 0.00 | 0.00 | 61 | 1016.3 |
| 20260903115051 | 71 | 262 | 7.0 | 13.0 | 0.00 | 0.00 | 0.00 | 63 | 1016.5 |
| 20260903114551 | 71 | 194 | 8.0 | 15.0 | 0.00 | 0.00 | 0.00 | 62 | 1016.6 |
| 20260903114050 | 71 | 210 | 7.0 | 15.0 | 0.00 | 0.00 | 0.00 | 63 | 1016.5 |
| 20260903113550 | 71 | 252 | 9.0 | 15.0 | 0.00 | 0.00 | 0.00 | 63 | 1016.6 |
| 20260903113051 | 71 | 231 | 5.0 | 11.0 | 0.00 | 0.00 | 0.00 | 63 | 1016.5 |
| 20260903112552 | 71 | 228 | 7.0 | 11.0 | 0.00 | 0.00 | 0.00 | 63 | 1016.4 |
| 20260903112050 | 70 | 196 | 7.0 | 10.0 | 0.00 | 0.00 | 0.00 | 64 | 1016.5 |
| 20260903111550 | 70 | 251 | 6.0 | 11.0 | 0.00 | 0.00 | 0.00 | 64 | 1016.9 |
| 20260903111050 | 71 | 265 | 7.0 | 14.0 | 0.00 | 0.00 | 0.00 | 63 | 1016.9 |
| 20260903110551 | 71 | 253 | 8.0 | 14.0 | 0.00 | 0.00 | 0.00 | 63 | 1017.0 |
| 20260903110050 | 71 | 301 | 7.0 | 15.0 | 0.00 | 0.00 | 0.00 | 64 | 1016.9 |
| 20260903105550 | 71 | 237 | 8.0 | 15.0 | 0.00 | 0.00 | 0.00 | 64 | 1017.0 |
| 20260903105050 | 71 | 217 | 6.0 | 14.0 | 0.00 | 0.00 | 0.00 | 63 | 1017.0 |
| 20260903104549 | 71 | 242 | 6.0 | 14.0 | 0.00 | 0.00 | 0.00 | 63 | 1016.9 |
| 20260903104051 | 71 | 207 | 6.0 | 11.0 | 0.00 | 0.00 | 0.00 | 65 | 1017.1 |
| 20260903103552 | 71 | 252 | 7.0 | 13.0 | 0.00 | 0.00 | 0.00 | 64 | 1017.2 |
| 20260903103052 | 70 | 235 | 8.0 | 14.0 | 0.00 | 0.00 | 0.00 | 63 | 1017.2 |
| 20260903102829 | 71 | 213 | 10.0 | 14.0 | 0.00 | 0.00 | 0.00 | 62 | 1017.2 |
| 20260903102052 | 71 | 221 | 9.0 | 13.0 | 0.00 | 0.00 | 0.00 | 64 | 1017.2 |
| 20260903101830 | 70 | 217 | 9.0 | 15.0 | 0.00 | 0.00 | 0.00 | 64 | 1017.2 |
| 20260903101050 | 71 | 220 | 11.0 | 15.0 | 0.00 | 0.00 | 0.00 | 65 | 1017.1 |
| 20260903100549 | 71 | 225 | 7.0 | 15.0 | 0.00 | 0.00 | 0.00 | 64 | 1017.2 |
| 20260903100049 | 71 | 217 | 11.0 | 15.0 | 0.00 | 0.00 | 0.00 | 66 | 1017.2 |
| 20260903095549 | 71 | 196 | 12.0 | 14.0 | 0.00 | 0.00 | 0.00 | 66 | 1017.4 |
| 20260903095327 | 71 | 259 | 7.0 | 13.0 | 0.00 | 0.00 | 0.00 | 65 | 1017.6 |
| 20260903094550 | 71 | 214 | 7.0 | 12.0 | 0.00 | 0.00 | 0.00 | 65 | 1017.5 |
| 20260903094050 | 71 | 229 | 7.0 | 12.0 | 0.00 | 0.00 | 0.00 | 66 | 1017.5 |
| 20260903093550 | 70 | 251 | 7.0 | 16.0 | 0.00 | 0.00 | 0.00 | 68 | 1017.6 |
| 20260903093049 | 70 | 249 | 9.0 | 16.0 | 0.00 | 0.00 | 0.00 | 68 | 1017.6 |
| 20260903092549 | 71 | 229 | 8.0 | 13.0 | 0.00 | 0.00 | 0.00 | 69 | 1017.6 |
| 20260903092119 | 70 | 238 | 12.0 | 13.0 | 0.00 | 0.00 | 0.00 | 70 | 1017.8 |
| 20260903092110 | 71 | 227 | 11.0 | 13.0 | 0.00 | 0.00 | 0.00 | 70 | 1017.8 |
| 20260903091048 | 70 | 201 | 7.0 | 13.0 | 0.00 | 0.00 | 0.00 | 70 | 1017.7 |
| 20260903090547 | 70 | 242 | 7.0 | 13.0 | 0.00 | 0.00 | 0.00 | 70 | 1017.8 |
| 20260903090049 | 70 | 225 | 9.0 | 13.0 | 0.00 | 0.00 | 0.00 | 69 | 1017.8 |
| 20260903085548 | 70 | 263 | 8.0 | 13.0 | 0.00 | 0.00 | 0.00 | 69 | 1017.9 |
| 20260903085327 | 70 | 203 | 10.0 | 13.0 | 0.00 | 0.00 | 0.00 | 68 | 1018.0 |
| 20260903084616 | 71 | 227 | 4.0 | 11.0 | 0.00 | 0.00 | 0.00 | 69 | 1017.9 |
| 20260903084602 | 71 | 214 | 9.0 | 12.0 | 0.00 | 0.00 | 0.00 | 68 | 1017.9 |
| 20260903083548 | 70 | 270 | 6.0 | 11.0 | 0.00 | 0.00 | 0.00 | 69 | 1017.9 |
| 20260903083046 | 70 | 249 | 4.0 | 11.0 | 0.00 | 0.00 | 0.00 | 69 | 1018.0 |
| 20260903082547 | 70 | 242 | 7.0 | 11.0 | 0.00 | 0.00 | 0.00 | 69 | 1017.9 |
| 20260903082322 | 71 | 283 | 7.0 | 11.0 | 0.00 | 0.00 | 0.00 | 65 | 1017.9 |
| 20260903081546 | 71 | 234 | 6.0 | 10.0 | 0.00 | 0.00 | 0.00 | 65 | 1017.8 |
| 20260903081047 | 70 | 225 | 7.0 | 11.0 | 0.00 | 0.00 | 0.00 | 69 | 1017.9 |
| 20260903080546 | 69 | 259 | 7.0 | 11.0 | 0.00 | 0.00 | 0.00 | 69 | 1017.9 |
| 20260903080047 | 68 | 220 | 5.0 | 10.0 | 0.00 | 0.00 | 0.00 | 69 | 1017.8 |
| 20260903075547 | 67 | 210 | 6.0 | 10.0 | 0.00 | 0.00 | 0.00 | 74 | 1017.9 |
| 20260903075046 | 65 | 279 | 4.0 | 7.0 | 0.00 | 0.00 | 0.00 | 74 | 1018.0 |
| 20260903074823 | 65 | 229 | 5.0 | 7.0 | 0.00 | 0.00 | 0.00 | 75 | 1018.0 |
| 20260903074046 | 64 | 246 | 4.0 | 9.0 | 0.00 | 0.00 | 0.00 | 75 | 1018.0 |
| 20260903073546 | 64 | 222 | 7.0 | 9.0 | 0.00 | 0.00 | 0.00 | 75 | 1018.0 |
| 20260903073046 | 64 | 259 | 5.0 | 9.0 | 0.00 | 0.00 | 0.00 | 76 | 1018.0 |
| 20260903072545 | 64 | 249 | 6.0 | 9.0 | 0.00 | 0.00 | 0.00 | 76 | 1018.0 |
| 20260903072046 | 63 | 234 | 4.0 | 6.0 | 0.00 | 0.00 | 0.00 | 77 | 1018.1 |
| 20260903071546 | 63 | 262 | 4.0 | 6.0 | 0.00 | 0.00 | 0.00 | 78 | 1017.9 |
| 20260903071413 | 62 | 276 | 4.0 | 11.0 | 0.00 | 0.00 | 0.00 | 78 | 1018.0 |
| 20260903071406 | 63 | 258 | 4.0 | 11.0 | 0.00 | 0.00 | 0.00 | 78 | 1018.0 |
| 20260903070045 | 62 | 232 | 4.0 | 7.0 | 0.00 | 0.00 | 0.00 | 78 | 1018.1 |
| 20260903065545 | 62 | 241 | 5.0 | 7.0 | 0.00 | 0.00 | 0.00 | 79 | 1018.2 |
| 20260903065045 | 62 | 270 | 4.0 | 7.0 | 0.00 | 0.00 | 0.00 | 79 | 1018.2 |
| 20260903064618 | 62 | 241 | 4.0 | 7.0 | 0.00 | 0.00 | 0.00 | 79 | 1018.3 |
| 20260903064607 | 62 | 273 | 4.0 | 7.0 | 0.00 | 0.00 | 0.00 | 79 | 1018.3 |
| 20260903063545 | 62 | 272 | 4.0 | 7.0 | 0.00 | 0.00 | 0.00 | 80 | 1018.2 |
| 20260903063044 | 61 | 238 | 4.0 | 7.0 | 0.00 | 0.00 | 0.00 | 80 | 1018.3 |
| 20260903062544 | 61 | 280 | 5.0 | 10.0 | 0.00 | 0.00 | 0.00 | 80 | 1018.3 |
| 20260903062045 | 61 | 268 | 6.0 | 10.0 | 0.00 | 0.00 | 0.00 | 80 | 1018.4 |
| 20260903061544 | 61 | 273 | 4.0 | 10.0 | 0.00 | 0.00 | 0.00 | 80 | 1018.2 |
| 20260903061045 | 61 | 270 | 4.0 | 10.0 | 0.00 | 0.00 | 0.00 | 81 | 1018.2 |
| 20260903060544 | 60 | 232 | 4.0 | 9.0 | 0.00 | 0.00 | 0.00 | 81 | 1018.3 |
| 20260903060044 | 60 | 252 | 7.0 | 9.0 | 0.00 | 0.00 | 0.00 | 83 | 1018.2 |
| 20260903055544 | 60 | 215 | 6.0 | 9.0 | 0.00 | 0.00 | 0.00 | 83 | 1018.1 |
| 20260903055044 | 60 | 241 | 5.0 | 9.0 | 0.00 | 0.00 | 0.00 | 84 | 1018.1 |
| 20260903054542 | 59 | 244 | 5.0 | 9.0 | 0.00 | 0.00 | 0.00 | 84 | 1018.2 |